Wind_Speed
22 23 23 23 23 24 24 22 19 18 17 17 16 15 16 15 15 20 26 18 20 15 14 19 19 17 17 15 7 4 2 3 5 6 2 6 4 5 1 10 5 6 18 36 50
24 24 24 24 25 25 25 24 22 21 21 18 17 15 15 17 19 25 18 16 19 18 20 27 25 23 11 9 6 3 2 5 6 8 1 2 10 14 7 15 5 14 26 48 49
24 24 25 25 25 26 25 24 23 24 24 22 19 16 13 14 16 2 1 14 28 25 20 23 23 23 9 8 9 7 4 3 3 11 1 6 15 15 15 3 9 34 47 54 49
25 25 25 25 24 24 24 22 23 24 26 20 20 16 12 9 2 3 3 7 31 28 27 28 28 14 6 6 14 3 11 14 3 11 7 8 12 7 17 7 22 37 60 58 50
26 26 25 24 23 23 21 20 23 27 30 24 21 13 10 8 12 6 4 7 33 33 35 34 32 16 8 8 8 12 11 12 24 26 19 10 15 7 19 5 26 39 45 50 48
28 27 26 24 24 23 19 19 25 31 24 18 15 10 8 4 3 7 16 3 32 36 38 35 23 26 12 5 15 8 19 22 23 20 11 10 6 13 10 26 35 38 42 42 46
30 29 27 25 24 22 19 20 27 30 15 20 22 10 11 20 5 3 7 13 21 34 39 38 12 24 8 2 22 18 9 10 16 15 2 14 3 4 26 31 36 35 35 36 37
34 33 30 26 24 24 20 22 27 23 14 19 25 9 9 5 5 8 12 13 24 34 31 32 25 29 5 5 5 5 5 3 9 7 9 10 3 13 28 33 32 33 34 37 37
35 36 33 31 26 25 21 23 23 15 12 24 12 11 10 5 9 2 6 18 20 32 30 20 30 6 8 2 4 3 4 7 8 11 4 8 4 16 30 30 30 33 35 35 35
34 37 33 35 30 25 23 25 18 9 13 13 10 8 5 16 25 18 9 19 19 20 21 10 12 5 2 4 9 6 4 4 6 4 11 11 6 18 28 30 32 31 35 37 38
35 36 37 35 31 19 23 19 17 4 27 8 17 7 19 25 15 6 7 17 18 16 8 14 6 17 28 18 3 4 4 6 6 6 8 15 9 20 30 25 26 31 32 36 38
36 36 36 34 26 14 14 16 14 12 14 19 7 9 16 14 9 15 8 12 13 9 6 5 17 21 7 7 12 8 5 6 10 5 6 7 17 18 21 31 39 40 38 38 35
37 36 33 31 16 16 12 15 17 17 2 11 6 18 21 12 2 15 15 7 6 12 15 10 4 14 10 12 13 13 13 9 9 5 3 4 7 14 20 10 21 27 34 36 42
35 34 31 27 8 18 11 16 17 7 4 5 10 13 23 8 3 12 21 5 5 17 15 14 17 15 16 17 11 12 12 14 14 3 4 5 4 11 16 22 21 30 35 38 40
34 34 30 17 8 18 20 20 8 2 3 5 6 11 17 18 16 13 16 4 5 11 8 16 15 19 19 23 16 14 6 9 8 3 3 9 3 7 15 19 22 27 38 41 44
34 31 22 10 8 17 23 22 2 4 3 5 6 8 8 14 6 19 14 11 1 6 14 9 15 16 23 12 15 4 4 3 1 3 10 17 8 5 13 25 22 27 39 42 43
34 20 13 13 16 19 22 10 4 3 7 5 5 7 6 8 8 12 8 15 6 7 7 9 22 10 6 18 10 11 7 4 4 5 13 7 7 13 22 25 28 28 44 44 43
32 8 9 15 13 16 19 4 4 3 3 3 3 2 5 8 4 8 7 5 14 4 2 5 11 19 13 12 15 12 15 6 8 4 8 6 8 6 14 24 40 39 48 41 41
33 2 6 11 12 13 10 5 3 2 3 4 2 4 5 5 2 7 6 2 6 9 4 7 7 9 16 14 17 8 19 12 5 3 2 4 5 6 7 13 19 30 35 34 35
34 3 3 12 12 7 4 2 0 3 2 3 3 1 2 4 6 2 4 6 3 10 2 2 6 5 12 11 11 15 8 7 4 10 5 4 5 7 12 12 14 19 29 36 41
25 5 14 24 6 3 3 4 3 7 1 2 4 2 3 1 2 2 1 6 9 10 4 4 2 9 8 7 25 8 11 4 6 5 13 1 8 8 9 14 19 19 36 38 42
16 3 19 17 7 4 2 5 6 6 3 2 1 4 2 2 3 2 1 1 7 8 3 4 4 6 10 16 16 9 11 8 10 13 1 3 16 5 11 13 15 22 36 40 45
17 7 11 15 4 4 7 5 4 4 3 2 2 3 3 4 2 3 3 3 7 3 1 3 2 6 9 1 6 4 5 7 5 4 9 13 17 6 4 4 8 14 34 36 43
7 4 6 11 7 3 5 5 4 8 2 6 4 1 0 3 4 3 4 6 11 5 8 2 4 6 6 9 13 11 23 18 9 8 7 14 19 14 14 10 7 10 25 32 46
4 2 4 4 2 3 4 5 9 5 6 7 3 4 1 4 3 5 5 2 7 6 5 3 5 6 11 19 21 22 23 24 13 12 14 11 12 12 8 6 8 20 21 28 45
4 4 2 6 7 6 3 2 7 5 4 6 3 10 7 5 7 7 6 5 6 3 3 3 3 3 14 20 17 18 18 19 20 19 6 5 12 3 4 10 17 21 14 23 34
2 3 3 4 2 2 2 2 6 13 9 11 5 11 12 9 9 15 17 16 8 8 5 4 2 3 7 8 12 6 7 11 4 17 4 9 4 4 6 12 16 24 18 21 36
Wind_Direction
8 5 3 0 357 354 351 349 348 345 337 333 320 312 303 294 277 264 253 242 212 180 180 177 175 173 174 194 208 191 217 211 163 166 21 100 165 206 168 154 179 174 159 159 157
7 4 2 360 356 353 352 349 346 345 339 332 325 315 308 300 291 272 284 237 204 188 184 180 170 165 181 211 213 186 202 228 179 146 26 184 166 165 162 176 74 110 145 153 157
5 2 359 356 352 351 352 351 350 341 334 331 327 318 310 307 307 317 325 210 196 194 198 185 164 161 193 181 207 193 225 206 210 141 32 237 173 180 155 211 192 148 153 157 161
2 359 357 354 351 349 350 355 351 346 338 328 326 315 310 297 278 183 105 186 188 187 185 177 171 168 172 203 209 239 250 252 160 213 228 255 172 157 164 213 195 169 160 161 165
360 357 356 353 350 349 349 351 346 340 330 312 310 309 305 267 256 226 232 172 181 183 185 180 179 179 182 193 226 238 261 265 253 255 252 255 181 179 202 171 165 156 160 164 168
358 356 355 352 348 347 349 345 340 343 348 347 323 305 278 253 260 229 222 182 185 184 187 187 189 183 200 217 193 203 230 255 265 256 244 180 159 137 155 152 151 160 166 170 173
2 356 353 352 345 343 344 341 342 339 340 353 342 303 259 255 211 160 207 229 203 192 187 193 187 184 198 161 254 262 293 294 274 224 239 139 143 159 155 157 156 165 170 175 178
360 1 356 354 344 340 338 337 339 332 330 339 336 317 258 298 248 283 260 204 201 196 202 200 194 203 204 300 352 181 165 254 275 220 189 167 228 136 156 157 166 172 175 178 183
357 357 0 359 347 339 340 343 340 335 338 335 348 330 292 17 21 7 325 208 201 205 203 216 201 214 227 221 7 297 191 203 285 225 182 178 117 165 167 165 174 181 180 183 190
355 351 355 357 349 339 341 345 345 310 347 345 355 327 7 315 316 304 322 201 196 197 204 200 189 167 148 148 211 190 183 206 228 244 192 201 177 168 180 177 181 187 187 189 194
352 348 344 350 348 343 348 4 14 350 328 275 312 269 336 342 330 318 341 189 190 161 171 203 183 203 211 206 192 179 186 194 237 228 187 219 172 183 183 190 191 190 196 195 199
350 349 342 348 350 354 1 44 24 335 306 315 318 322 351 347 319 17 351 183 186 189 164 141 216 220 214 179 214 246 251 247 288 216 181 232 217 195 181 196 194 190 196 200 200
351 348 342 349 354 360 15 16 353 343 269 301 1 7 6 345 311 356 350 296 210 206 193 200 219 196 206 200 202 219 219 229 235 47 221 114 246 197 202 198 204 203 205 205 200
348 346 341 350 357 8 9 347 343 328 58 284 3 17 6 13 321 344 7 243 271 213 207 228 232 195 194 216 189 214 206 223 252 115 222 161 239 207 206 204 198 204 204 210 208
347 342 332 336 340 360 350 345 325 222 356 8 14 1 7 29 301 346 1 5 257 274 176 215 205 215 211 211 191 227 163 202 233 196 279 250 133 265 209 210 208 207 209 211 208
349 342 347 357 359 352 347 339 168 46 230 8 34 333 25 1 24 348 351 13 359 322 264 246 227 200 220 222 212 161 194 185 74 151 248 248 166 244 190 217 212 211 215 214 207
354 355 38 33 358 330 337 347 45 115 347 12 332 352 38 344 15 13 31 38 17 23 14 283 244 260 199 208 204 198 129 231 237 201 237 223 196 216 202 215 210 210 213 218 210
355 7 36 14 334 328 341 44 86 15 63 333 311 330 30 20 50 2 13 10 31 27 44 21 240 216 222 207 197 205 203 168 188 178 221 182 209 236 199 215 217 219 217 213 204
349 301 29 5 346 332 354 48 174 337 279 340 23 43 341 16 16 32 25 74 34 24 82 358 268 322 290 212 192 200 209 199 95 4 154 223 240 290 194 224 218 218 217 212 213
348 344 359 344 333 319 69 241 208 342 277 74 104 28 305 348 5 71 348 63 19 23 318 73 299 284 303 268 230 206 168 192 206 206 235 279 224 224 175 200 211 220 221 216 211
354 3 340 323 293 87 131 220 292 28 31 130 187 229 252 4 249 227 130 104 17 3 2 39 165 300 334 224 217 207 202 203 157 178 222 270 250 201 205 189 191 207 223 215 207
355 360 349 3 52 35 34 311 309 320 333 345 173 198 205 268 255 271 110 40 51 354 7 62 298 282 252 286 302 289 197 165 204 215 272 190 251 253 214 201 177 203 216 222 211
340 313 359 18 59 338 324 304 294 327 309 309 230 143 179 216 253 223 167 108 103 89 134 51 6 313 305 357 21 353 326 212 223 98 198 221 256 221 236 230 229 197 215 225 220
357 355 355 55 83 46 339 287 312 330 58 349 261 136 349 246 237 227 226 177 109 83 93 120 200 202 259 314 313 291 309 307 299 198 194 220 253 247 280 282 278 259 291 256 215
11 12 17 327 340 319 244 272 306 337 337 351 322 81 360 264 259 208 195 237 89 106 104 113 244 218 255 271 275 273 274 281 283 251 204 224 232 245 254 296 296 302 278 241 208
7 16 356 276 287 313 301 301 313 332 317 302 310 324 306 232 221 240 206 180 206 148 126 196 268 356 289 268 252 248 261 255 249 256 204 222 242 180 74 42 5 349 293 206 192
7 296 274 263 272 264 257 290 285 302 275 252 293 293 279 275 279 285 267 267 225 159 149 188 241 5 266 334 316 200 336 312 112 36 322 208 281 240 48 44 12 358 356 217 193
Height
1518 1515 1511 1508 1504 1500 1497 1493 1490 1487 1484 1481 1479 1477 1474 1473 1472 1470 1466 1471 1476 1479 1481 1485 1489 1493 1497 1498 1499 1499 1503 1502 1497 1498 1493 1490 1491 1490 1494 1499 1501 1501 1499 1505 1514
1518 1515 1511 1507 1503 1499 1495 1491 1488 1485 1482 1479 1476 1474 1472 1469 1467 1463 1463 1466 1471 1476 1477 1480 1485 1491 1496 1496 1497 1497 1501 1491 1486 1487 1489 1487 1489 1492 1497 1499 1500 1500 1504 1510 1516
1518 1514 1510 1506 1502 1498 1494 1490 1487 1483 1480 1477 1474 1471 1470 1468 1465 1457 1456 1457 1464 1471 1477 1481 1486 1490 1494 1494 1494 1492 1492 1485 1484 1485 1483 1486 1487 1490 1494 1498 1495 1493 1500 1510 1516
1517 1513 1509 1505 1500 1496 1492 1489 1485 1481 1477 1474 1471 1469 1468 1467 1466 1456 1455 1455 1459 1468 1474 1479 1485 1488 1491 1491 1490 1492 1482 1483 1484 1485 1485 1485 1485 1488 1489 1489 1491 1495 1493 1503 1513
1517 1512 1508 1503 1498 1494 1491 1487 1483 1478 1472 1468 1467 1467 1466 1465 1457 1457 1455 1454 1457 1464 1468 1472 1478 1483 1485 1485 1489 1487 1482 1480 1480 1483 1485 1483 1483 1485 1488 1489 1491 1500 1504 1506 1513
1515 1510 1506 1501 1496 1491 1488 1485 1480 1475 1468 1463 1462 1463 1464 1464 1455 1453 1454 1455 1455 1460 1465 1470 1472 1478 1481 1482 1484 1480 1481 1478 1477 1477 1477 1479 1482 1483 1491 1491 1495 1501 1505 1509 1512
1514 1508 1504 1499 1493 1489 1485 1482 1477 1472 1468 1463 1460 1458 1459 1451 1453 1452 1453 1456 1457 1458 1463 1467 1472 1476 1477 1480 1480 1479 1482 1477 1471 1474 1474 1475 1483 1483 1487 1495 1496 1503 1508 1512 1515
1512 1507 1501 1497 1491 1486 1483 1479 1474 1468 1466 1463 1458 1455 1451 1449 1451 1453 1454 1455 1458 1461 1465 1467 1474 1476 1477 1476 1476 1477 1483 1493 1465 1468 1473 1474 1490 1486 1489 1492 1498 1502 1505 1509 1512
1510 1504 1499 1495 1489 1483 1480 1477 1472 1467 1465 1462 1458 1456 1448 1449 1450 1450 1452 1454 1458 1461 1466 1470 1474 1475 1476 1479 1487 1481 1492 1485 1474 1465 1470 1473 1486 1488 1489 1490 1497 1501 1502 1507 1512
1509 1502 1498 1493 1487 1482 1478 1474 1469 1466 1465 1461 1459 1458 1452 1452 1450 1447 1447 1451 1455 1459 1468 1470 1471 1473 1476 1481 1491 1490 1485 1479 1478 1463 1469 1477 1476 1482 1488 1488 1491 1498 1499 1501 1505
1509 1502 1496 1492 1486 1482 1478 1472 1469 1468 1465 1464 1463 1463 1455 1450 1446 1447 1449 1450 1454 1457 1463 1463 1469 1466 1455 1462 1467 1470 1472 1474 1466 1462 1467 1470 1473 1476 1480 1490 1493 1494 1499 1499 1501
1508 1501 1495 1491 1485 1483 1481 1479 1485 1486 1470 1462 1461 1461 1457 1452 1448 1448 1449 1450 1450 1453 1457 1464 1462 1451 1460 1465 1469 1471 1475 1476 1465 1462 1467 1468 1467 1467 1475 1474 1475 1479 1488 1492 1500
1506 1499 1493 1489 1486 1484 1482 1482 1481 1479 1479 1463 1463 1461 1458 1454 1452 1451 1450 1448 1446 1450 1451 1454 1447 1454 1459 1462 1468 1469 1474 1473 1471 1463 1460 1467 1471 1469 1470 1477 1486 1485 1488 1490 1489
1505 1499 1493 1488 1487 1484 1481 1480 1478 1475 1484 1469 1464 1465 1461 1452 1453 1452 1450 1448 1443 1443 1447 1449 1442 1447 1452 1456 1459 1477 1457 1462 1464 1472 1487 1460 1492 1475 1471 1473 1476 1478 1482 1484 1488
1503 1496 1490 1486 1486 1483 1481 1477 1474 1475 1491 1466 1469 1469 1467 1467 1462 1452 1450 1444 1445 1443 1440 1435 1437 1443 1447 1442 1449 1452 1452 1459 1462 1469 1474 1468 1490 1477 1466 1472 1467 1467 1471 1475 1479
1500 1492 1486 1485 1484 1482 1478 1474 1474 1484 1485 1473 1473 1470 1467 1465 1463 1459 1454 1446 1444 1442 1433 1434 1430 1430 1431 1437 1442 1444 1453 1459 1463 1475 1484 1459 1475 1476 1465 1454 1459 1462 1462 1464 1470
1498 1491 1487 1485 1484 1480 1477 1473 1486 1491 1476 1481 1480 1474 1472 1472 1468 1465 1465 1467 1466 1461 1456 1435 1426 1426 1426 1437 1439 1445 1463 1491 1495 1493 1471 1453 1469 1453 1442 1437 1442 1449 1450 1453 1460
1497 1492 1488 1485 1483 1479 1476 1477 1488 1482 1484 1480 1479 1477 1479 1475 1474 1472 1471 1475 1473 1470 1474 1478 1445 1422 1416 1424 1435 1441 1449 1479 1494 1487 1467 1453 1463 1447 1428 1428 1431 1436 1439 1447 1450
1493 1489 1487 1485 1482 1480 1479 1494 1489 1484 1482 1482 1480 1482 1483 1477 1477 1477 1477 1478 1478 1476 1479 1477 1456 1432 1422 1413 1421 1435 1441 1440 1463 1467 1470 1445 1440 1428 1423 1424 1424 1429 1434 1445 1450
1491 1486 1485 1484 1481 1480 1484 1490 1485 1481 1480 1481 1486 1485 1486 1484 1484 1482 1478 1475 1477 1477 1475 1477 1476 1445 1427 1416 1412 1416 1426 1450 1459 1472 1477 1457 1442 1433 1427 1426 1423 1424 1426 1433 1439
1491 1486 1485 1481 1480 1479 1490 1490 1483 1482 1481 1482 1483 1483 1483 1486 1486 1484 1478 1477 1480 1479 1475 1474 1477 1451 1440 1415 1411 1420 1420 1424 1435 1452 1450 1467 1437 1410 1413 1411 1416 1416 1414 1419 1426
1492 1490 1486 1480 1482 1489 1492 1489 1484 1481 1480 1479 1478 1481 1482 1484 1484 1482 1480 1478 1479 1479 1480 1479 1479 1465 1447 1415 1421 1424 1413 1424 1427 1446 1451 1447 1422 1394 1396 1397 1406 1407 1407 1408 1414
1497 1493 1490 1485 1499 1500 1494 1489 1485 1482 1481 1479 1479 1479 1479 1483 1484 1481 1480 1477 1478 1478 1482 1479 1480 1479 1433 1420 1418 1426 1413 1408 1413 1431 1446 1441 1409 1395 1394 1393 1394 1400 1403 1403 1405
1502 1500 1494 1494 1500 1502 1502 1492 1485 1482 1480 1481 1478 1477 1479 1482 1480 1479 1479 1476 1476 1477 1478 1479 1481 1480 1463 1464 1464 1452 1438 1434 1430 1428 1426 1417 1401 1400 1392 1392 1390 1392 1391 1391 1394
1504 1505 1505 1505 1502 1503 1503 1496 1488 1485 1482 1481 1477 1481 1485 1485 1479 1479 1475 1475 1476 1477 1478 1480 1479 1475 1469 1463 1458 1453 1447 1433 1434 1409 1409 1406 1409 1393 1392 1391 1388 1386 1381 1374 1379
1505 1507 1506 1503 1502 1501 1497 1492 1490 1486 1486 1480 1479 1480 1480 1482 1477 1476 1472 1473 1471 1476 1476 1480 1474 1471 1460 1445 1440 1443 1431 1420 1415 1405 1399 1397 1397 1384 1388 1387 1384 1380 1370 1370 1371
1506 1506 1505 1502 1500 1500 1497 1494 1491 1489 1482 1478 1479 1480 1475 1468 1468 1467 1466 1466 1466 1467 1472 1479 1474 1474 1464 1437 1432 1430 1421 1411 1395 1411 1403 1401 1390 1385 1387 1387 1388 1380 1377 1371 1372